TimeEST,TemperatureF,Dew PointF,Humidity,Sea Level PressureIn,VisibilityMPH,Wind Direction,Wind SpeedMPH,Gust SpeedMPH,PrecipitationIn,Events,Conditions,WindDirDegrees,DateUTC
12:53 AM,34.0,32.0,92,29.73,6.0,ENE,5.8,-,0.02,Rain,Light Rain,60,2012-12-29 05:53:00
1:19 AM,33.8,32.0,93,29.72,4.0,Variable,3.5,-,0.02,Rain,Light Rain,0,2012-12-29 06:19:00
1:38 AM,33.8,32.0,93,29.73,1.8,North,3.5,-,0.04,Rain,Light Rain,360,2012-12-29 06:38:00
1:45 AM,33.8,32.0,93,29.73,1.5,Variable,3.5,-,0.04,Rain,Light Rain,0,2012-12-29 06:45:00
1:48 AM,33.8,32.0,93,29.73,2.0,North,4.6,-,0.04,Rain,Light Rain,360,2012-12-29 06:48:00
1:53 AM,33.1,32.0,96,29.75,2.5,Variable,3.5,-,0.04,Rain,Light Rain,0,2012-12-29 06:53:00
2:17 AM,33.8,32.0,93,29.72,3.0,Variable,5.8,-,0.02,Rain,Light Rain,0,2012-12-29 07:17:00
2:39 AM,33.8,30.2,87,29.73,1.8,Calm,Calm,-,0.04,Snow,Light Snow,0,2012-12-29 07:39:00
2:46 AM,32.0,30.2,93,29.72,1.5,Calm,Calm,-,0.04,Snow,Light Snow,0,2012-12-29 07:46:00
2:49 AM,32.0,30.2,93,29.72,2.5,Calm,Calm,-,0.05,Snow,Light Snow,0,2012-12-29 07:49:00
2:53 AM,32.0,32.0,100,29.74,3.0,Calm,Calm,-,0.05,,Overcast,0,2012-12-29 07:53:00
3:00 AM,32.0,30.2,93,29.71,5.0,SE,3.5,-,0.00,,Overcast,130,2012-12-29 08:00:00
3:07 AM,32.0,32.0,100,29.72,1.2,Calm,Calm,-,0.00,,Overcast,0,2012-12-29 08:07:00
3:10 AM,32.0,32.0,100,29.71,0.5,Calm,Calm,-,0.00,Fog,Fog,0,2012-12-29 08:10:00
3:23 AM,32.0,30.2,93,29.71,0.2,Calm,Calm,-,0.01,Fog,Fog,0,2012-12-29 08:23:00
3:33 AM,32.0,32.0,100,29.71,0.2,SSE,3.5,-,0.02,Fog,Fog,160,2012-12-29 08:33:00
3:40 AM,32.0,32.0,100,29.71,0.2,SSE,3.5,-,0.02,Fog,Fog,160,2012-12-29 08:40:00
3:53 AM,32.0,32.0,100,29.72,0.5,Calm,Calm,-,0.02,Fog,Fog,0,2012-12-29 08:53:00
4:53 AM,33.1,30.9,92,29.71,0.8,SSW,4.6,-,0.02,Snow,Light Snow,210,2012-12-29 09:53:00
5:11 AM,33.8,33.8,100,29.69,1.8,Variable,3.5,-,0.00,Snow,Light Snow,0,2012-12-29 10:11:00
5:25 AM,33.8,33.8,100,29.69,1.2,SSW,4.6,-,0.00,Rain,Light Rain,200,2012-12-29 10:25:00
5:48 AM,33.8,33.8,100,29.69,2.5,SW,4.6,-,0.00,Rain,Light Rain,220,2012-12-29 10:48:00
5:53 AM,34.0,33.1,96,29.70,2.5,Calm,Calm,-,0.00,Rain,Light Rain,0,2012-12-29 10:53:00
5:55 AM,33.8,33.8,100,29.69,1.2,Calm,Calm,-,0.00,Rain,Light Rain,0,2012-12-29 10:55:00
6:07 AM,33.8,33.8,100,29.69,0.8,Variable,3.5,-,0.00,Rain,Light Rain,0,2012-12-29 11:07:00
6:28 AM,33.8,33.8,100,29.69,1.5,SSW,5.8,-,0.01,Rain,Light Rain,210,2012-12-29 11:28:00
6:32 AM,33.8,33.8,100,29.69,3.0,Variable,5.8,-,0.01,Rain,Light Rain,0,2012-12-29 11:32:00
6:53 AM,35.1,34.0,96,29.73,10.0,WSW,9.2,-,0.01,,Overcast,240,2012-12-29 11:53:00
7:13 AM,35.6,35.6,100,29.71,10.0,Variable,4.6,-,0.00,,Overcast,0,2012-12-29 12:13:00
7:53 AM,35.1,34.0,96,29.75,10.0,WSW,9.2,23.0,0.00,Rain,Light Rain,240,2012-12-29 12:53:00
8:53 AM,34.0,32.0,92,29.80,10.0,West,11.5,27.6,0.02,Rain,Light Rain,260,2012-12-29 13:53:00
9:12 AM,33.8,32.0,93,29.78,5.0,WSW,8.1,18.4,0.00,Rain,Light Rain,250,2012-12-29 14:12:00
9:53 AM,33.1,30.9,92,29.84,3.0,West,8.1,17.3,0.00,Snow,Light Snow,260,2012-12-29 14:53:00
10:02 AM,33.8,30.2,87,29.82,2.0,Variable,5.8,-,0.00,Snow,Light Snow,0,2012-12-29 15:02:00
10:06 AM,32.0,30.2,93,29.82,1.5,WSW,6.9,-,0.00,Snow,Light Snow,250,2012-12-29 15:06:00
10:16 AM,33.8,30.2,87,29.83,2.0,West,9.2,-,0.00,Snow,Light Snow,260,2012-12-29 15:16:00
10:29 AM,33.8,30.2,87,29.84,5.0,WSW,8.1,17.3,0.00,,Overcast,250,2012-12-29 15:29:00
10:45 AM,32.0,30.2,93,29.85,9.0,West,11.5,19.6,0.00,,Overcast,260,2012-12-29 15:45:00
10:53 AM,32.0,30.0,92,29.88,10.0,West,8.1,19.6,0.00,,Overcast,280,2012-12-29 15:53:00
11:13 AM,32.0,30.2,93,29.85,8.0,West,8.1,-,0.00,,Overcast,270,2012-12-29 16:13:00
11:53 AM,32.0,30.0,92,29.89,5.0,West,6.9,-,0.00,,Overcast,260,2012-12-29 16:53:00
12:53 PM,30.9,28.9,92,29.89,5.0,Variable,4.6,-,0.00,,Overcast,0,2012-12-29 17:53:00
1:53 PM,30.0,27.0,88,29.91,6.0,West,8.1,18.4,0.00,,Overcast,270,2012-12-29 18:53:00
2:51 PM,30.2,26.6,86,29.91,4.0,Variable,6.9,-,0.00,,Overcast,0,2012-12-29 19:51:00
2:53 PM,30.0,27.0,88,29.94,4.0,Variable,5.8,-,0.00,,Overcast,0,2012-12-29 19:53:00
3:48 PM,30.2,26.6,86,29.94,5.0,West,5.8,20.7,N/A,Snow,Light Snow,280,2012-12-29 20:48:00
3:53 PM,30.0,26.1,85,29.97,6.0,West,10.4,18.4,0.00,,Overcast,280,2012-12-29 20:53:00
4:04 PM,30.2,26.6,86,29.95,4.0,Variable,4.6,20.7,0.00,Snow,Light Snow,0,2012-12-29 21:04:00
4:26 PM,30.2,26.6,86,29.96,2.5,Variable,3.5,-,0.00,Snow,Light Snow,0,2012-12-29 21:26:00
4:35 PM,30.2,26.6,86,29.96,1.5,West,10.4,20.7,0.00,Snow,Light Snow,260,2012-12-29 21:35:00
4:53 PM,28.9,26.1,89,30.01,1.5,WSW,6.9,17.3,0.00,Snow,Light Snow,250,2012-12-29 21:53:00
5:06 PM,28.4,26.6,93,29.98,2.0,West,9.2,-,0.00,Snow,Light Snow,280,2012-12-29 22:06:00
5:17 PM,28.4,26.6,93,29.99,2.5,WSW,5.8,-,0.00,Snow,Light Snow,250,2012-12-29 22:17:00
5:27 PM,28.4,26.6,93,29.99,3.0,Variable,4.6,-,0.00,Snow,Light Snow,0,2012-12-29 22:27:00
5:53 PM,30.0,27.0,88,30.04,5.0,West,6.9,-,0.00,,Overcast,260,2012-12-29 22:53:00
6:21 PM,30.2,26.6,86,30.02,8.0,West,10.4,18.4,N/A,,Overcast,280,2012-12-29 23:21:00
6:53 PM,30.0,26.1,85,30.06,5.0,WSW,6.9,-,0.00,Snow,Light Snow,250,2012-12-29 23:53:00
7:53 PM,30.0,26.1,85,30.08,6.0,West,6.9,-,0.00,Snow,Light Snow,260,2012-12-30 00:53:00
8:23 PM,28.4,23.0,80,30.07,9.0,West,10.4,24.2,0.00,,Overcast,270,2012-12-30 01:23:00
8:37 PM,28.4,21.2,74,30.08,10.0,Variable,5.8,23.0,0.00,,Overcast,0,2012-12-30 01:37:00
8:53 PM,28.0,21.9,78,30.12,10.0,Variable,5.8,-,0.00,,Overcast,0,2012-12-30 01:53:00
9:53 PM,28.0,21.0,75,30.15,6.0,West,9.2,20.7,0.00,Snow,Light Snow,280,2012-12-30 02:53:00
10:53 PM,26.1,19.0,75,30.19,10.0,WNW,12.7,25.3,0.00,,Overcast,300,2012-12-30 03:53:00
11:53 PM,25.0,19.0,78,30.23,8.0,Variable,6.9,16.1,0.00,Snow,Light Snow,0,2012-12-30 04:53:00